星链-5151 (STARLINK-5151 )

导读 | 星芒AI

STARLINK-5151 是 SpaceX Starlink 项目中的一颗低轨通信卫星,旨在为全球用户提供高速互联网服务。该卫星属于 Starlink 群体部署的一部分,运行在约 550 公里的近地轨道上,采用先进推进系统和激光通信技术,以提升网络性能和减少延迟。其部署有助于扩大 Starlink 在全球范围内的覆盖能力,特别是在偏远和网络基础设施薄弱的地区。STARLINK-5151 于 2023 年发射,是 SpaceX 扩展其卫星互联网服务的重要一环。

基本信息
目录编号:
54066
目录名称:
STARLINK-5151
国际标识:
2022-136R
轨道中心:
EARTH
卫星名称:
星链-5151
卫星全名:
星链-5151 (STARLINK-5151 )
卫星状态:
在轨 (已飞行1158 天)
发射日期:
2022-10-20 UTC
国别 :
美国 (US)
星等 :
--
轨道信息
数据来源 国际轨道数据 AOE轨道数据
星历时间 2025-12-21T10:48:02+0800
8小时前
查看轨道信息
2025-12-19T21:00:00+0800
1天前
查看轨道信息
半长轴 6917.904km 6917.878km
偏心率 0.0001273 0.00015
轨道倾角 53.220° 53.218°
近地点辐角 88.099° 87.118°
升交点赤经 336.749° 343.822°
平近点角 272.015° 353.100°
近地点 538.886km 538.703km
远地点 540.648km 540.779km
周期 95.438分钟 95.437分钟
每日圈数 15.088323 15.08841
详细信息
固有亮度:
5
最大亮度:
2.5
卫星平台:
Starlink v1.5
覆盖范围:
全球
运营商:
太空探索技术公司
运营商所在国:
美国
制造商(研发单位):
太空探索技术公司
制造商所在国:
美国
使用方式:
暂无
卫星简介
星链(Starlink)计划是由太空探索技术公司(SpaceX)提出的一个巨型低轨卫星互联网星座项目,计划在2019年至2024年间在太空搭建由约1.2万颗卫星组成的“星链”网络,其中1584颗将部署在地球上空550千米处的近地轨道,并从2020年开始工作。该卫星仍在工作。
2D轨道图
3D轨道图
轨道高度分析图
轨道倾角分析图
轨道综合分析图
查看轨道综合分析图